Notices

What's New in latest Release from April 7th, 2021:

- Updated Glossary, including Speed of Maximum Gust, and Total Hourly Precipitation

- Updated national and regional climate services offices contacts and prices information

- Addition of station inventory lists for 1981-2010, 1971-2000, and 1961-1990 Normals.

If you haven't already, please take our survey and provide feedback about our website: https://eccc.sondage-survey.ca/f/LanguageSelection.aspx?s=442ca660-fcf1-47c0-95a9-59707d6fd709

Hourly Data Report for March 08, 2003

TORONTO CITY
ONTARIO

43°40'00.000" N
79°24'00.000" W
112.50 m
6158355
71508
XTO

Download Data

Hourly Data (March 2003)
Hourly Data Report for March 8, 2003
TIME
LST
Temp Definition
°C
Dew Point Definition
°C
Rel Hum Definition
%
Precip. Amount Definition
mm

Wind Dir Definition
10's deg

Wind Spd Definition
km/h
Visibility Definition
km
Stn Press Definition
kPa
Hmdx Definition


Wind Chill Definition


Weather Definition


00:00 -0.9 -4.3 78   LegendMM LegendMM LegendMM 100.33     LegendNANA
01:00 -0.3 -3.8 77   LegendMM LegendMM LegendMM 100.40     LegendNANA
02:00 -0.2 -3.8 77   LegendMM LegendMM LegendMM 100.46     LegendNANA
03:00 -0.2 -4.0 76   LegendMM LegendMM LegendMM 100.43     LegendNANA
04:00 -0.1 -4.3 73   LegendMM LegendMM LegendMM 100.46     LegendNANA
05:00 0.0 -4.0 74   LegendMM LegendMM LegendMM 100.53     LegendNANA
06:00 0.0 -3.8 76   LegendMM LegendMM LegendMM 100.46     LegendNANA
07:00 0.2 -3.6 76   LegendMM LegendMM LegendMM 100.42     LegendNANA
08:00 0.4 -2.6 80   LegendMM LegendMM LegendMM 100.43     LegendNANA
09:00 0.6 -2.4 80   LegendMM LegendMM LegendMM 100.42     LegendNANA
10:00 0.9 -2.1 80   LegendMM LegendMM LegendMM 100.36     LegendNANA
11:00 1.2 -1.6 82   LegendMM LegendMM LegendMM 100.22     LegendNANA
12:00 1.9 -1.3 79   LegendMM LegendMM LegendMM 100.05     LegendNANA
13:00 2.2 -1.1 79   LegendMM LegendMM LegendMM 99.91     LegendNANA
14:00 2.8 -1.5 73   LegendMM LegendMM LegendMM 99.70     LegendNANA
15:00 3.1 -1.5 72   LegendMM LegendMM LegendMM 99.53     LegendNANA
16:00 2.7 -0.8 78   LegendMM LegendMM LegendMM 99.40     LegendNANA
17:00 2.8 -0.7 78   LegendMM LegendMM LegendMM 99.16     LegendNANA
18:00 2.7 -1.0 77   LegendMM LegendMM LegendMM 98.94     LegendNANA
19:00 2.2 -0.8 81   LegendMM LegendMM LegendMM 98.88     LegendNANA
20:00 1.2 0.1 92   LegendMM LegendMM LegendMM 98.77     LegendNANA
21:00 1.1 0.3 94   LegendMM LegendMM LegendMM 98.74     LegendNANA
22:00 0.2 -0.9 92   LegendMM LegendMM LegendMM 98.77     LegendNANA
23:00 -2.4 -4.8 84   LegendMM LegendMM LegendMM 98.89     LegendNANA

Notes on Data Quality.

Legend

  • E = Estimated
  • M = Missing
  • NA = Not Available*
  • [empty] = Indicates an unobserved value
Date modified: